NI4CE-10 Weather Reports


time (UTC)temp
C
wind
direction
speed
KPH
gust
KPH
rain 1hr
cm
rain 24hr
cm
rain mn
cm
humidity
%
barometer
mb
20260831042811 23 84 0.0 0.0 0.00 2.24 2.24 100 1018.3
20260831042311 23 84 0.0 0.0 0.00 2.24 2.24 100 1018.4
20260831041811 23 84 0.0 0.0 0.00 2.24 2.24 100 1018.5
20260831041311 23 84 0.0 0.0 0.00 2.24 2.24 100 1018.5
20260831040811 23 84 0.0 0.0 0.00 2.24 2.24 100 1018.6
20260831040311 23 84 0.0 0.0 0.00 2.24 2.24 100 1018.6
20260831035811 23 75 0.0 0.0 0.00 2.24 2.24 100 1018.6
20260831035311 23 75 0.0 4.8 0.00 2.24 2.24 100 1018.6
20260831034811 23 42 0.0 1.6 0.00 2.24 2.24 100 1018.6
20260831034311 23 50 0.0 9.7 0.00 2.24 2.24 100 1018.6
20260831033811 23 74 1.6 9.7 0.00 2.24 2.24 100 1018.6
20260831033311 23 85 0.0 9.7 0.00 2.24 2.24 100 1018.6
20260831032811 23 36 0.0 0.0 0.00 2.24 2.24 100 1018.6
20260831032311 23 36 0.0 0.0 0.00 2.24 2.24 100 1018.7
20260831031811 23 36 0.0 0.0 0.00 2.24 2.24 100 1018.6
20260831031311 23 36 0.0 6.4 0.00 2.24 2.24 100 1018.6
20260831030952 23 78 4.8 4.8 0.00 2.24 2.24 100 1018.6
20260831030811 23 78 4.8 4.8 0.00 2.24 2.24 100 1018.6
20260831030311 23 16 0.0 0.0 0.00 2.24 2.24 100 1018.6
20260831025811 23 16 0.0 0.0 0.00 2.24 2.24 100 1018.6
20260831025311 23 16 0.0 8.0 0.00 2.24 2.24 100 1018.6
20260831024811 23 32 6.4 6.4 0.00 2.24 2.24 100 1018.5
20260831024311 24 75 0.0 0.0 0.00 2.24 2.24 100 1018.6
20260831023811 24 75 0.0 4.8 0.00 2.24 2.24 100 1018.6
20260831023311 24 57 0.0 4.8 0.00 2.24 2.24 100 1018.6
20260831022811 24 33 3.2 4.8 0.00 2.24 2.24 100 1018.6
20260831022311 24 29 0.0 4.8 0.00 2.24 2.24 100 1018.7
20260831021811 24 68 0.0 0.0 0.00 2.24 2.24 100 1018.7
20260831021311 24 68 0.0 6.4 0.00 2.24 2.24 100 1018.7
20260831020811 24 46 0.0 4.8 0.00 2.24 2.24 100 1018.7
20260831020311 24 64 3.2 6.4 0.00 2.24 2.24 100 1018.7
20260831015811 24 29 0.0 8.0 0.00 2.24 2.24 100 1018.7
20260831015311 24 61 3.2 6.4 0.00 2.24 2.24 100 1018.7
20260831014811 24 53 0.0 0.0 0.00 2.24 2.24 100 1018.6
20260831014311 24 53 0.0 0.0 0.00 2.24 2.24 100 1018.6
20260831013811 24 53 0.0 0.0 0.00 2.24 2.24 100 1018.7
20260831013311 24 53 0.0 0.0 0.00 2.24 2.24 100 1018.7
20260831012811 24 53 0.0 0.0 0.00 2.24 2.24 100 1018.6
20260831012311 24 53 0.0 0.0 0.00 2.24 2.24 100 1018.7
20260831011811 24 53 0.0 0.0 0.00 2.24 2.24 100 1018.8
20260831011311 24 53 0.0 0.0 0.00 2.24 2.24 100 1018.8
20260831011112 24 53 0.0 0.0 0.00 2.24 2.24 100 1018.7
20260831010811 24 53 0.0 0.0 0.00 2.24 2.24 100 1018.7
20260831010311 24 53 0.0 0.0 0.00 2.24 2.24 100 1018.5
20260831005811 24 53 0.0 0.0 0.00 2.24 2.24 100 1018.4
20260831005311 25 53 0.0 0.0 0.00 2.24 2.24 100 1018.5
20260831004812 24 53 0.0 0.0 0.00 2.24 2.24 100 1018.5
20260831004501 24 53 0.0 0.0 0.00 2.24 2.24 100 1018.3
20260831004312 24 53 0.0 0.0 0.00 2.24 2.24 100 1018.3
20260831003812 25 53 0.0 0.0 0.00 2.24 2.24 100 1018.2
20260831003312 24 53 0.0 0.0 0.03 2.24 2.24 100 1018.1
20260831003147 25 53 0.0 0.0 0.03 2.24 2.24 100 1018.2
20260831002812 25 53 0.0 0.0 0.03 2.24 2.24 100 1018.2
20260831002312 25 53 0.0 0.0 0.03 2.24 2.24 100 1018.2
20260831001812 25 53 0.0 0.0 0.03 2.24 2.24 100 1018.2
20260831001312 25 53 0.0 0.0 0.03 2.24 2.24 100 1018.1
20260831001214 25 53 0.0 0.0 0.03 2.24 2.24 100 1018.1
20260831000812 25 53 0.0 0.0 0.03 2.24 2.24 100 1018.1
20260831000312 25 53 0.0 6.4 0.03 2.26 2.24 100 1018.1
20260830235812 25 4 0.0 0.0 0.03 2.26 2.24 100 1018.0
20260830235312 25 4 0.0 0.0 0.03 2.26 2.24 100 1018.0
20260830234812 25 60 0.0 0.0 0.03 2.26 2.24 100 1018.1
20260830234312 25 60 0.0 0.0 0.03 2.26 2.24 100 1018.0
20260830234138 25 60 0.0 0.0 0.03 2.26 2.24 100 1017.9
20260830233812 25 60 0.0 0.0 0.03 2.26 2.24 100 1017.9
20260830233312 25 60 0.0 0.0 0.00 2.24 2.21 100 1017.8
20260830233209 25 60 0.0 0.0 0.00 2.24 2.21 100 1017.8
20260830232812 25 60 0.0 0.0 0.00 2.24 2.21 100 1017.8
20260830232312 25 60 0.0 0.0 0.00 2.24 2.21 100 1017.7
20260830231812 25 60 0.0 3.2 0.00 2.24 2.21 100 1017.7
20260830231312 25 60 1.6 3.2 0.00 2.24 2.21 100 1017.6
20260830230812 25 146 0.0 0.0 0.00 2.24 2.21 100 1017.7
20260830230312 25 146 0.0 0.0 0.00 2.24 2.21 100 1017.7
20260830230200 25 146 0.0 0.0 0.00 2.24 2.21 100 1017.7
20260830225812 25 146 0.0 0.0 0.00 2.24 2.21 100 1017.7
20260830225312 25 146 0.0 0.0 0.03 2.24 2.21 100 1017.6
20260830224812 25 146 0.0 0.0 0.03 2.24 2.21 100 1017.5
20260830224312 25 146 0.0 4.8 0.03 2.24 2.21 100 1017.4
20260830223812 25 97 0.0 0.0 0.05 2.24 2.21 100 1017.3
20260830223312 25 97 0.0 0.0 0.05 2.24 2.21 100 1017.3
20260830222812 25 97 0.0 0.0 0.05 2.24 2.21 100 1017.3
20260830222312 25 97 0.0 0.0 0.08 2.24 2.21 100 1017.2
20260830221812 25 97 0.0 0.0 0.08 2.24 2.21 100 1017.3
20260830221312 25 97 0.0 0.0 0.08 2.24 2.21 100 1017.3
20260830220812 25 97 0.0 0.0 0.10 2.24 2.21 100 1017.3
20260830220312 25 97 0.0 0.0 0.10 2.34 2.21 100 1017.2
20260830220133 25 97 0.0 0.0 0.13 2.34 2.21 100 1017.2
20260830215812 25 97 0.0 0.0 0.13 2.34 2.21 100 1017.2
20260830215312 25 97 0.0 0.0 0.10 2.31 2.18 100 1017.3
20260830214812 25 97 0.0 0.0 0.13 2.31 2.18 100 1017.4
20260830214312 25 97 0.0 0.0 0.15 2.31 2.18 100 1017.5
20260830213812 25 97 0.0 0.0 0.15 2.29 2.16 100 1017.7
20260830213312 25 97 0.0 0.0 0.18 2.29 2.16 100 1017.9
20260830212812 25 97 0.0 0.0 0.18 2.29 2.16 100 1018.0
20260830212312 25 97 0.0 0.0 0.20 2.26 2.13 100 1018.0
20260830211812 25 97 0.0 0.0 0.30 2.26 2.13 100 1018.2
20260830211312 25 97 0.0 0.0 0.46 2.26 2.13 100 1018.2
20260830210812 25 97 0.0 0.0 0.53 2.24 2.11 100 1018.2
20260830210312 25 97 0.0 6.4 0.74 2.84 2.11 100 1018.3
20260830205812 25 160 3.2 11.3 1.17 2.82 2.08 100 1018.2
20260830205312 25 132 3.2 9.7 1.55 2.82 2.08 100 1018.2
20260830204812 25 118 0.0 9.7 1.70 2.79 2.06 100 1018.2
20260830204312 25 129 0.0 0.0 1.80 2.77 2.03 100 1018.0
20260830203813 25 129 0.0 0.0 1.80 2.74 2.01 100 1017.8
20260830203313 25 129 0.0 4.8 1.78 2.72 1.98 100 1017.8
20260830203051 24 74 0.0 4.8 1.78 2.72 1.98 100 1018.0
20260830202813 24 74 0.0 4.8 1.78 2.72 1.98 100 1018.0
20260830202313 24 97 1.6 11.3 1.73 2.67 1.93 100 1018.0
20260830202110 24 127 1.6 16.1 1.80 2.57 1.83 100 1018.1
20260830201813 24 127 1.6 16.1 1.80 2.57 1.83 100 1018.1
20260830201313 24 184 8.0 17.7 1.68 2.41 1.68 100 1018.4
20260830200813 23 202 6.4 20.9 1.57 2.31 1.57 100 1018.8
20260830200313 23 185 11.3 27.4 1.37 4.17 1.37 100 1019.0
20260830195813 23 151 25.7 33.8 0.91 3.71 0.91 100 1019.0
20260830195313 23 140 22.5 40.2 0.53 3.33 0.53 100 1018.8
20260830195015 25 192 16.1 27.4 0.36 3.15 0.36 100 1018.9
20260830194813 25 192 16.1 27.4 0.36 3.15 0.36 100 1018.9
20260830194313 25 153 11.3 25.7 0.23 3.02 0.23 100 1018.7
20260830193813 26 139 9.7 25.7 0.20 3.00 0.20 100 1018.5
20260830193313 26 161 14.5 37.0 0.20 3.00 0.20 100 1018.1
20260830192813 28 101 11.3 38.6 0.20 3.00 0.20 100 1017.9
20260830192313 30 336 3.2 14.5 0.20 3.00 0.20 100 1017.5
20260830191813 30 88 1.6 14.5 0.03 2.82 0.03 100 1017.5
20260830191313 33 108 4.8 11.3 0.00 2.79 0.00 100 1017.3
20260830191136 33 146 11.3 14.5 0.00 2.79 0.00 100 1017.3
20260830190813 33 146 11.3 14.5 0.00 2.79 0.00 100 1017.3
20260830190313 34 157 6.4 6.4 0.00 2.79 0.00 100 1017.4
20260830185813 34 165 3.2 3.2 0.00 2.79 0.00 100 1017.5
20260830185313 34 170 3.2 9.7 0.00 2.79 0.00 100 1017.6
20260830184813 34 106 4.8 8.0 0.00 2.79 0.00 100 1017.6
20260830184313 33 94 6.4 11.3 0.00 2.79 0.00 100 1017.6
20260830183813 33 95 6.4 12.9 0.00 2.79 0.00 100 1017.6
20260830183313 33 181 0.0 6.4 0.00 2.79 0.00 100 1017.7
20260830182813 33 78 3.2 8.0 0.00 2.79 0.00 100 1017.7
20260830182313 34 97 1.6 8.0 0.00 2.79 0.00 100 1017.8
20260830181813 36 68 3.2 6.4 0.00 2.79 0.00 100 1017.8
20260830181313 39 241 4.8 6.4 0.00 2.79 0.00 100 1017.9
20260830180813 38 222 6.4 8.0 0.00 2.79 0.00 100 1018.0
20260830180313 42 1 0.0 3.2 0.00 2.79 0.00 100 1018.2
20260830175813 37 90 1.6 4.8 0.00 2.79 0.00 100 1018.3
20260830175313 38 178 0.0 4.8 0.00 2.79 0.00 100 1018.3
20260830174813 37 213 0.0 11.3 0.00 2.79 0.00 100 1018.6
20260830174313 42 253 8.0 9.7 0.00 2.79 0.00 100 1018.7
20260830173813 35 215 8.0 8.0 0.00 2.79 0.00 100 1018.7
20260830173313 36 172 6.4 8.0 0.00 2.79 0.00 100 1018.8
20260830172813 39 192 8.0 12.9 0.00 2.79 0.00 100 1018.7
20260830172313 46 216 8.0 11.3 0.00 2.79 0.00 100 1018.6
20260830171813 40 142 4.8 12.9 0.00 2.79 0.00 100 1018.7
20260830171313 42 164 4.8 9.7 0.00 2.79 0.00 100 1018.7
20260830170813 40 189 4.8 12.9 0.00 2.79 0.00 100 1018.8
20260830170717 44 234 6.4 14.5 0.00 2.79 0.00 100 1018.8
20260830170313 44 234 6.4 14.5 0.00 2.79 0.00 100 1018.8
20260830165813 44 112 6.4 11.3 0.00 2.79 0.00 100 1018.6
20260830165313 46 81 6.4 9.7 0.00 2.79 0.00 100 1018.8
20260830164814 45 213 4.8 11.3 0.00 2.79 0.00 100 1019.0
20260830164314 41 170 6.4 14.5 0.00 2.79 0.00 100 1019.0
20260830163814 43 136 6.4 12.9 0.00 2.79 0.00 100 1019.1
20260830163314 46 90 6.4 11.3 0.00 2.79 0.00 100 1019.1
20260830162814 47 127 4.8 12.9 0.00 2.79 0.00 100 1019.2
20260830162314 45 192 8.0 8.0 0.00 2.79 0.00 100 1019.2
20260830161814 36 95 1.6 9.7 0.00 2.79 0.00 100 1019.1
20260830161314 37 136 4.8 12.9 0.00 2.79 0.00 100 1019.1
20260830160814 38 219 9.7 11.3 0.00 2.79 0.00 100 1019.2
20260830160314 46 105 8.0 11.3 0.00 2.79 0.00 100 1019.2
20260830155814 43 156 3.2 12.9 0.00 2.79 0.00 100 1019.4
20260830155314 41 167 8.0 14.5 0.00 2.79 0.00 100 1019.5
20260830154814 43 188 3.2 9.7 0.00 2.79 0.00 100 1019.5
20260830154314 43 70 6.4 8.0 0.00 2.79 0.00 100 1019.3
20260830153814 38 170 6.4 11.3 0.00 2.79 0.00 100 1019.3
20260830153314 33 167 11.3 11.3 0.00 2.79 0.00 100 1019.3
20260830152814 33 157 3.2 12.9 0.00 2.79 0.00 100 1019.3
20260830152314 35 112 4.8 9.7 0.00 2.79 0.00 100 1019.3
20260830151814 33 142 6.4 14.5 0.00 2.79 0.00 100 1019.4
20260830151314 32 153 6.4 16.1 0.00 2.79 0.00 100 1019.5
20260830150814 33 158 9.7 17.7 0.00 2.79 0.00 100 1019.6
20260830150314 33 98 6.4 11.3 0.00 2.79 0.00 100 1019.7
20260830145814 33 163 4.8 12.9 0.00 2.79 0.00 100 1019.6
20260830145314 32 171 9.7 17.7 0.00 2.79 0.00 100 1019.6
20260830144814 33 97 8.0 16.1 0.00 2.79 0.00 100 1019.5
20260830144314 32 175 9.7 17.7 0.00 2.79 0.00 100 1019.6
20260830143814 32 98 8.0 16.1 0.00 2.79 0.00 100 1019.7
20260830143314 32 115 4.8 14.5 0.00 2.79 0.00 100 1019.7
20260830142814 33 99 9.7 14.5 0.00 2.79 0.00 100 1019.6
20260830142314 33 151 11.3 12.9 0.00 2.79 0.00 100 1019.7
20260830141814 33 98 8.0 12.9 0.00 2.79 0.00 100 1019.7
20260830141314 36 149 6.4 12.9 0.00 2.79 0.00 100 1019.7
20260830140814 37 92 11.3 11.3 0.00 2.79 0.00 100 1019.6
20260830140314 35 135 8.0 11.3 0.00 2.79 0.00 100 1019.6
20260830135814 35 125 8.0 11.3 0.00 2.79 0.00 100 1019.6
20260830135314 36 92 8.0 11.3 0.00 2.79 0.00 100 1019.6
20260830134814 34 105 4.8 11.3 0.00 2.79 0.00 100 1019.6
20260830134314 33 70 3.2 9.7 0.00 2.79 0.00 100 1019.6
20260830133814 35 108 6.4 9.7 0.00 2.79 0.00 100 1019.6
20260830133314 34 139 6.4 12.9 0.00 2.79 0.00 100 1019.6
20260830132814 33 143 9.7 9.7 0.00 2.79 0.00 100 1019.5
20260830132314 33 109 8.0 11.3 0.00 2.79 0.00 100 1019.4
20260830131814 33 106 4.8 9.7 0.00 2.79 0.00 100 1019.3
20260830131314 33 74 8.0 8.0 0.00 2.79 0.00 100 1019.3
20260830131145 32 67 6.4 9.7 0.00 2.79 0.00 100 1019.2
20260830130814 32 67 6.4 9.7 0.00 2.79 0.00 100 1019.2
20260830130314 32 101 6.4 9.7 0.00 2.79 0.00 100 1019.3
20260830125814 31 90 3.2 9.7 0.00 2.79 0.00 100 1019.3
20260830125314 31 64 0.0 6.4 0.00 2.79 0.00 100 1019.2
20260830124814 30 53 0.0 6.4 0.00 2.79 0.00 100 1019.3
20260830124315 27 42 0.0 0.0 0.00 2.79 0.00 100 1019.3
20260830123815 25 42 0.0 0.0 0.00 2.79 0.00 100 1019.3
20260830123315 24 42 0.0 0.0 0.00 2.79 0.00 100 1019.2
20260830122815 24 42 0.0 0.0 0.00 2.79 0.00 100 1019.1
20260830122315 24 42 0.0 0.0 0.00 2.79 0.00 100 1019.0
20260830121815 24 42 0.0 0.0 0.00 2.79 0.00 100 1018.9
20260830121315 23 42 0.0 0.0 0.00 2.79 0.00 100 1018.8
20260830120815 23 42 0.0 0.0 0.00 2.79 0.00 100 1018.8
20260830120315 23 42 0.0 0.0 0.00 2.79 0.00 100 1018.8
20260830115815 23 42 0.0 0.0 0.00 2.79 0.00 100 1018.8
20260830115315 23 42 0.0 0.0 0.00 2.79 0.00 100 1018.7
20260830114815 23 42 0.0 0.0 0.00 2.79 0.00 100 1018.7
20260830114315 23 42 0.0 0.0 0.00 2.79 0.00 100 1018.6
20260830113815 23 42 0.0 0.0 0.00 2.79 0.00 100 1018.5
20260830113315 23 42 0.0 0.0 0.00 2.79 0.00 100 1018.6
20260830112815 23 42 0.0 0.0 0.00 2.79 0.00 100 1018.5
20260830112315 23 42 0.0 0.0 0.00 2.79 0.00 100 1018.5
20260830111815 23 42 0.0 0.0 0.00 2.79 0.00 100 1018.5
20260830111315 23 42 0.0 0.0 0.00 2.79 0.00 100 1018.5
20260830110815 22 42 0.0 0.0 0.00 2.79 0.00 100 1018.4
20260830110315 22 42 0.0 0.0 0.00 2.79 0.00 100 1018.3
20260830105815 22 42 0.0 0.0 0.00 2.79 0.00 100 1018.3
20260830105315 22 42 0.0 0.0 0.00 2.79 0.00 100 1018.2
20260830104815 22 42 0.0 0.0 0.00 2.79 0.00 100 1018.2
20260830104315 22 42 0.0 0.0 0.00 2.79 0.00 100 1018.2
20260830103815 22 42 0.0 0.0 0.00 2.79 0.00 100 1018.2
20260830103315 22 42 0.0 0.0 0.00 2.79 0.00 100 1018.1
20260830103145 22 42 0.0 0.0 0.00 2.79 0.00 100 1017.9
20260830102815 22 42 0.0 0.0 0.00 2.79 0.00 100 1017.9
20260830102315 22 42 0.0 0.0 0.00 2.79 0.00 100 1017.8
20260830101815 22 42 0.0 0.0 0.00 2.79 0.00 100 1017.7
20260830101315 22 42 0.0 0.0 0.00 2.79 0.00 100 1017.7
20260830100815 22 42 0.0 0.0 0.00 2.79 0.00 100 1017.6
20260830100315 22 42 0.0 0.0 0.00 2.79 0.00 100 1017.5
20260830095815 22 42 0.0 0.0 0.00 2.79 0.00 100 1017.4
20260830095315 22 42 0.0 0.0 0.00 2.79 0.00 100 1017.3
20260830094815 23 42 0.0 0.0 0.00 2.79 0.00 100 1017.3
20260830094315 23 42 0.0 0.0 0.00 2.79 0.00 100 1017.2
20260830093815 23 42 0.0 0.0 0.00 2.79 0.00 100 1017.4
20260830093315 23 42 0.0 0.0 0.00 2.79 0.00 100 1017.3
20260830093027 38 191 4.8 14.5 0.00 0.00 0.00 100 1018.2
20260830092815 23 42 0.0 0.0 0.00 2.79 0.00 100 1017.4
20260830092315 23 42 0.0 0.0 0.00 2.79 0.00 100 1017.4
20260830091815 23 42 0.0 3.2 0.00 2.79 0.00 100 1017.4
20260830091315 23 42 0.0 3.2 0.00 2.79 0.00 100 1017.5
20260830090815 23 64 0.0 0.0 0.00 2.79 0.00 100 1017.5
20260830090315 23 64 0.0 0.0 0.00 2.79 0.00 100 1017.5
20260830085815 23 64 0.0 0.0 0.00 2.79 0.00 100 1017.6
20260830085316 23 64 0.0 0.0 0.00 2.79 0.00 100 1017.7
20260830084816 23 64 0.0 0.0 0.00 2.79 0.00 100 1017.6
20260830084316 23 64 0.0 0.0 0.00 2.79 0.00 100 1017.5
20260830083816 23 64 0.0 0.0 0.00 2.79 0.00 100 1017.6
20260830083316 23 64 0.0 0.0 0.00 2.79 0.00 100 1017.6
20260830082816 23 64 0.0 0.0 0.00 2.79 0.00 100 1017.6
20260830082316 23 64 0.0 0.0 0.00 2.79 0.00 100 1017.7
20260830081816 23 64 0.0 0.0 0.00 2.79 0.00 100 1017.8
20260830081316 23 64 0.0 0.0 0.00 2.79 0.00 100 1017.7
20260830080816 23 64 0.0 0.0 0.00 2.79 0.00 100 1017.7
20260830080316 23 64 0.0 0.0 0.00 2.79 0.00 100 1017.7
20260830075816 23 64 0.0 0.0 0.00 2.79 0.00 100 1017.7
20260830075316 23 64 0.0 0.0 0.00 2.79 0.00 100 1017.7
20260830074816 23 64 0.0 0.0 0.00 2.79 0.00 100 1017.8
20260830074316 23 64 0.0 0.0 0.00 2.79 0.00 100 1017.9
20260830073816 23 64 0.0 0.0 0.00 2.79 0.00 100 1017.9
20260830073705 23 64 0.0 0.0 0.00 2.79 0.00 100 1018.0
20260830073316 23 64 0.0 0.0 0.00 2.79 0.00 100 1018.0
20260830072816 23 64 0.0 1.6 0.00 2.79 0.00 100 1018.0
20260830072316 23 116 0.0 9.7 0.00 2.79 0.00 100 1018.2
20260830071816 22 139 4.8 6.4 0.00 2.79 0.00 100 1018.2
20260830071316 23 71 0.0 0.0 0.00 2.79 0.00 100 1018.3
20260830070816 23 71 0.0 0.0 0.00 2.79 0.00 100 1018.4
20260830070316 23 71 0.0 0.0 0.00 2.79 0.00 100 1018.6
20260830065816 23 71 0.0 0.0 0.00 2.79 0.00 100 1018.8
20260830065316 23 71 0.0 0.0 0.00 2.79 0.00 100 1018.8
20260830064816 23 71 0.0 0.0 0.00 2.79 0.00 100 1018.8
20260830064316 23 71 0.0 0.0 0.00 2.79 0.00 100 1018.8
20260830063816 23 71 0.0 0.0 0.00 2.79 0.00 100 1018.9
20260830063631 23 71 0.0 0.0 0.00 2.79 0.00 100 1018.9
20260830063316 23 71 0.0 0.0 0.00 2.79 0.00 100 1018.9
20260830062816 23 71 0.0 0.0 0.00 2.79 0.00 100 1019.0
20260830062316 23 71 0.0 0.0 0.00 2.79 0.00 100 1018.9
20260830061816 23 71 0.0 0.0 0.00 2.79 0.00 100 1018.9
20260830061316 23 71 0.0 0.0 0.00 2.79 0.00 100 1018.8
20260830060816 23 71 0.0 0.0 0.00 2.79 0.00 100 1018.8
20260830060316 23 71 0.0 0.0 0.00 2.79 0.00 100 1018.7
20260830055816 23 71 0.0 0.0 0.00 2.79 0.00 100 1018.5
20260830055316 23 71 0.0 0.0 0.00 2.79 0.00 100 1018.6
20260830054816 23 71 0.0 3.2 0.00 2.79 0.00 100 1018.6
20260830054316 23 70 0.0 1.6 0.00 2.79 0.00 100 1018.7
20260830053816 23 59 0.0 1.6 0.00 2.79 0.00 100 1018.8
20260830053316 23 75 0.0 0.0 0.00 2.79 0.00 100 1018.9
20260830052816 23 75 0.0 0.0 0.00 2.79 0.00 100 1018.9
20260830052740 23 75 0.0 0.0 0.00 2.79 0.00 100 1018.9
20260830052316 23 75 0.0 0.0 0.00 2.79 0.00 100 1018.9
20260830051816 23 75 0.0 6.4 0.00 2.79 0.00 100 1019.0
20260830051316 23 106 0.0 1.6 0.00 2.79 0.00 100 1019.1
20260830050816 23 106 1.6 6.4 0.00 2.79 0.00 100 1019.2
20260830050316 23 95 3.2 8.0 0.00 2.79 0.00 100 1019.2
20260830045816 23 98 4.8 9.7 0.00 2.79 0.00 100 1019.3
20260830045317 23 99 4.8 9.7 0.00 2.79 2.79 100 1019.4
20260830044817 23 112 0.0 0.0 0.00 2.79 2.79 100 1019.4
20260830044317 23 112 0.0 3.2 0.00 2.79 2.79 100 1019.4
20260830043817 23 112 0.0 4.8 0.00 2.79 2.79 100 1019.4
20260830043317 23 90 0.0 0.0 0.00 2.79 2.79 100 1019.2